sat.trackr.live / text

‹ back to catalog

STARLINK-5551

NORAD 56359 · 2023-058AU

PAYLOAD ACTIVE UNKNOWN

§ Identity

Operator
Country
US
Launch date
2023-04-27
Launch site
AFWTR
Launch vehicle
Mass (kg)
RCS (m²)

Purposes: comms

External: N2YO · Heavens-Above · Gunter

§ Orbital elements

Epoch: 2026-09-20T22:00:03.000096Z

Period
94.59 min
Inclination
97.2830°
Eccentricity
0.0000901
Mean motion
15.22317139 rev/d
Perigee alt
498.2 km
Apogee alt
499.5 km
Semi-major
6,877.0 km
B*
3.1616e-3
RAAN
257.7410°
Arg perigee
95.0370°
Mean anomaly
278.9460°
Rev number
548

§ Raw data

STARLINK-55511 56359U 23058AU  26263.91670139  .00073457  00000+0  31616-2 0  99952 56359  97.2830 257.7410 0000901  95.0370 278.9460 15.22317139  5486

JSON: /api/v1/satellites/56359 · /tle

For live sub-satellite position, see the globe view (requires WebGL).

§ Visibility from observer

Set your observer location to see the next 7 days of passes ≥ 10°. The values pass through the URL so the page stays shareable.

No JS? Fill the form by hand. The geolocation button needs JavaScript.